Location: Fazenda Monte Alegre
(4.8500°S, 38.0333°W)
Time: 16:55:25
(UTC+00:00)

Cosmos 1975 Rocket - Pass Details

Date: 24 September 2020
Orbit: 603 x 634 km, 82.5° (Epoch: 25 October)

Event Time Altitude Azimuth Distance (km) Brightness Sun altitude
Rises 21:01:58 0° 7° (N) 2,839 6.4 -9.4°
Reaches altitude 10° 21:04:13 10° 13° (NNE) 1,943 5.5 -10.0°
Maximum altitude 21:08:21 47° 87° (E) 802 3.2 -11.0°
Drops below altitude 10° 21:12:33 10° 161° (SSE) 1,969 5.5 -12.0°
Sets 21:14:50 0° 166° (SSE) 2,883 6.4 -12.6°
